Location: Unspecified
(0.0000°N, 0.0000°E)
Time: 02:53:11
(UTC+00:00)

ESSA 4 - Pass Details

Date: 08 November 2024
Orbit: 1326 x 1439 km, 102.1° (Epoch: 03 December)

Event Time Altitude Azimuth Distance (km) Brightness Sun altitude
Rises 04:40:57 0° 177° (S) 4,339 12.2 -15.0°
Reaches altitude 10° 04:43:45 10° 182° (S) 3,361 11.5 -14.4°
Maximum altitude 04:51:05 48° 253° (WSW) 1,680 9.4 -12.6°
Drops below altitude 10° 04:58:26 10° 326° (NW) 3,365 10.8 -10.8°
Sets 05:01:16 0° 331° (NNW) 4,345 11.5 -10.2°
